Regional Weather Roundup
Issued by NWS

Home | Current Version | Previous Version | Graphics & Text | Print | Product List | Glossary On
Versions: 1 2 3 4 5 6 7 8 9 10 11 12 13 14 15 16 17 18 19 20 21 22 23 24 25 26 27 28 29 30 31 32 33 34 35 36 37 38 39 40 41 42 43 44 45 46 47 48 49 50
000
ASUS43 KOAX 270110
RWRNE

WEATHER ROUNDUP FOR NEBRASKA
NATIONAL WEATHER SERVICE OMAHA NE
800 PM CDT MON JUN 26 2017

NOTES: SATELLITE DATA IS BEING USED TO AUGMENT CLOUD COVER ABOVE
       12000 FEET.
       "FAIR" INDICATES FEW OR NO CLOUDS BELOW 12,000 FEET WITH NO
       SIGNIFICANT WEATHER AND/OR OBSTRUCTIONS TO VISIBILITY.

  * THESE STATIONS DO NOT REPORT WEATHER SUCH AS RAIN...SNOW OR FOG.

NEZ001>004-019>022-054>056-270200-
NEBRASKA PANHANDLE

CITY           SKY/WX    TMP DP  RH WIND       PRES   REMARKS
SCOTTSBLUFF    SUNNY     82  43  25 SE12      30.07S
ALLIANCE       SUNNY     77  38  24 SE14      30.09F
CHADRON        SUNNY     80  37  21 SE16      30.04F
GORDON         FAIR      75  41  28 SE12      30.10F
KIMBALL        SUNNY     80  48  32 SE13      30.12S
SIDNEY         SUNNY     77  49  37 SE20G29   30.12S
$$

NEZ057>060-069>072-079>082-270200-
SOUTHWEST NEBRASKA

CITY           SKY/WX    TMP DP  RH WIND       PRES   REMARKS
NORTH PLATTE   SUNNY     77  45  32 E10       30.11S
IMPERIAL       SUNNY     76  53  44 E16       30.10S
LEXINGTON      SUNNY     75  50  40 E12       30.11S
MCCOOK         CLOUDY    75  55  49 E15       30.10S
OGALLALA       SUNNY     79  41  25 E14       30.11S
$$

NEZ005>010-023>029-035>040-094-270200-
NORTH CENTRAL NEBRASKA

CITY           SKY/WX    TMP DP  RH WIND       PRES   REMARKS
VALENTINE      PTSUNNY   75  35  23 SE9       30.12S
AINSWORTH      CLOUDY    70  41  34 E10       30.14S
BROKEN BOW     MOSUNNY   73  45  36 E8        30.13S
O`NEILL        SUNNY     71  42  35 E8        30.14S
ORD            MOSUNNY   72  41  32 NE6       30.12R
THEDFORD       MOSUNNY   75  41  30 E10       30.14S
$$

NEZ041-046>049-061>064-073>077-083>087-270200-
SOUTH CENTRAL NEBRASKA

CITY           SKY/WX    TMP DP  RH WIND       PRES   REMARKS
GRAND ISLAND   SUNNY     72  52  49 NE10      30.12R
AURORA         SUNNY     72  50  45 NE9       30.11S
HASTINGS       SUNNY     73  52  47 NE9       30.12R
HEBRON         SUNNY     70  61  73 E6        30.10R
HOLDREGE       SUNNY     74  52  46 E12       30.11S
KEARNEY *      PTSUNNY   73  52  46 NE10      30.12S
YORK           SUNNY     72  52  49 NE9       30.12R
$$

NEZ011>018-030>034-042>045-270200-
NORTHEAST NEBRASKA

CITY           SKY/WX    TMP DP  RH WIND       PRES   REMARKS
NORFOLK        SUNNY     70  42  36 NE7       30.13R
ALBION         SUNNY     73  42  32 NE6       30.13S
BLAIR          PTCLDY    72  48  42 NE6       30.11S
FREMONT        CLEAR     72  44  37 NE3       30.12S
TEKAMAH        CLEAR     73  42  32 N9        30.11S
WAYNE          SUNNY     71  44  38 NE7       30.13S
$$

NEZ050>053-065>068-078-088>093-270200-
SOUTHEAST NEBRASKA

CITY           SKY/WX    TMP DP  RH WIND       PRES   REMARKS
LINCOLN        PTCLDY    74  52  46 NE10      30.11S
OMAHA EPPLEY   PTCLDY    74  51  44 NE6       30.10S
BEATRICE       CLEAR     68  63  82 E7        30.10S
FALLS CITY     CLEAR     69  60  73 SE3       30.09F
NEBRASKA CITY  PTCLDY    69  62  78 CALM      30.11S
PLATTSMOUTH    MOCLDY    71  55  55 NE5       30.11S
$$

NEZ044-045-051>053-067-270200-
OMAHA AREA

CITY           SKY/WX    TMP DP  RH WIND       PRES   REMARKS
OMAHA EPPLEY   PTCLDY    74  51  44 NE6       30.10S
BLAIR          PTCLDY    72  48  42 NE6       30.11S
FREMONT        CLEAR     72  44  37 NE3       30.12S
MILLARD        CLEAR     74  51  43 NE3       30.10S
OFFUTT AFB     CLEAR     72  53  51 N8        30.09F
PLATTSMOUTH    MOCLDY    71  55  55 NE5       30.11S
WAHOO          FAIR      73  44  36 NE7       30.11S
$$




USA.gov is the U.S. government's official web portal to all federal, state and local government web resources and services.